Location: Mercogliano
(40.9167°N, 14.7333°E)
Time: 03:27:42
(UTC+00:00)

YAOGAN 1 - Pass Details

Date: 18 September 2020
Orbit: 618 x 620 km, 97.9° (Epoch: 25 October)

Event Time Altitude Azimuth Distance (km) Brightness Sun altitude
Rises 18:19:56 0° 189° (S) 2,882 5.9 -14.9°
Reaches altitude 10° 18:22:17 10° 199° (SSW) 1,981 5.2 -15.3°
Maximum altitude 18:26:10 32° 263° (W) 1,062 4.4 -16.0°
Drops below altitude 10° 18:30:05 10° 327° (NNW) 1,995 5.9 -16.7°
Sets 18:32:28 0° 338° (NNW) 2,906 6.6 -17.2°
